Weather History for North Platte, NE

Change the Weather History Date:

Saturday, August 17, 2013

  Actual Average Record
Temperature  
Mean Temperature 69 °F 72 °F  
Max Temperature 76 °F 86 °F 104 °F (1936)
Min Temperature 62 °F 58 °F 45 °F (1890)
Degree Days  
Heating Degree Days 0 0  
Month to date heating degree days 0 0  
Since 1 June heating degree days 60 56  
Since 1 July heating degree days 13 5  
Cooling Degree Days 4 8  
Month to date cooling degree days 111 147  
Year to date cooling degree days 640 606  
Since 1 June cooling degree days 592 578  
Growing Degree Days 18 (Base 50)    
Moisture  
Dew Point 63 °F    
Average Humidity 81    
Maximum Humidity 93    
Minimum Humidity 69    
Precipitation  
Precipitation 0.00 in 0.08 in 2.06 in (1999)
Month to date precipitation 3.33 1.50  
Year to date precipitation 14.18 15.43  
Snow  
Snow 0.00 in 0.00 in 0.00 in (2002)
Month to date snowfall 0.0 0.0  
Since 1 June snowfall T 0.0  
Since 1 July snowfall 0.0 0.0  
Snow Depth 0.00 in    
Sea Level Pressure  
Sea Level Pressure 30.07 in    
Wind  
Wind Speed 8 mph (SE)    
Max Wind Speed 15 mph    
Max Gust Speed 22 mph    
Visibility 8 miles    
Events      
T = Trace of Precipitation, MM = Missing Value Source: NWS Daily Summary

Daily Weather History Graph

Daily Weather History Graph

Search for Another Location

Airport:

Trip Planner

Search our weather history database for the weather conditions in past years. The results will help you decide how hot, cold, wet, or windy it might be!

Date:

Astronomy

Aug. 17, 2013 Rise Set
Actual Time 6:54 AM CDT 8:38 PM CDT
Civil Twilight 6:25 AM CDT 9:07 PM CDT
Nautical Twilight 5:49 AM CDT 9:42 PM CDT
Astronomical Twilight 5:11 AM CDT 10:20 PM CDT
Moon 5:56 PM CDT (8/17) 2:58 AM CDT (8/17)
Length of Visible Light 14h 42m
Length of Day
13h 43m
Waxing Gibbous, 84% of the Moon is Illuminated
Aug 17
Waxing Gibbous
Aug 20
Full
Aug 28
Last Quarter
Sep 5
New
Sep 12
First Quarter

Hourly Weather History & Observations

Time (CDT) Temp. Dew Point Humidity Pressure Visibility Wind Dir Wind Speed Gust Speed Precip Events Conditions
12:53 AM 64.9 °F 62.1 °F 90% 30.11 in 8.0 mi SE 6.9 mph - N/A   Mostly Cloudy
1:28 AM 64.4 °F 62.6 °F 94% 30.16 in 7.0 mi SE 5.8 mph - N/A   Scattered Clouds
1:46 AM 64.4 °F 62.6 °F 94% 30.16 in 7.0 mi ESE 5.8 mph - N/A   Mostly Cloudy
1:53 AM 64.0 °F 62.1 °F 93% 30.10 in 7.0 mi ESE 5.8 mph - N/A   Mostly Cloudy
2:53 AM 63.0 °F 61.0 °F 93% 30.09 in 5.0 mi East 5.8 mph - N/A   Mostly Cloudy
3:39 AM 62.6 °F 60.8 °F 94% 30.14 in 3.0 mi ESE 6.9 mph - N/A   Mostly Cloudy
3:53 AM 63.0 °F 61.0 °F 93% 30.07 in 3.0 mi ESE 6.9 mph - N/A   Overcast
4:53 AM 64.0 °F 62.1 °F 93% 30.06 in 4.0 mi East 5.8 mph - N/A   Overcast
5:13 AM 64.4 °F 62.6 °F 94% 30.12 in 6.0 mi SE 6.9 mph - N/A   Overcast
5:53 AM 66.0 °F 63.0 °F 90% 30.04 in 8.0 mi SE 5.8 mph - N/A   Overcast
6:53 AM 66.0 °F 63.0 °F 90% 30.06 in 8.0 mi SE 5.8 mph - N/A   Overcast
7:53 AM 66.0 °F 63.0 °F 90% 30.08 in 5.0 mi ESE 6.9 mph - N/A   Overcast
8:53 AM 66.0 °F 64.0 °F 93% 30.08 in 6.0 mi SSE 6.9 mph - N/A   Overcast
9:53 AM 66.9 °F 64.0 °F 90% 30.09 in 7.0 mi South 10.4 mph - N/A   Overcast
10:44 AM 69.8 °F 64.4 °F 83% 30.14 in 8.0 mi SSE 9.2 mph - N/A   Overcast
10:53 AM 69.1 °F 64.0 °F 84% 30.09 in 9.0 mi SSE 8.1 mph - N/A   Overcast
11:40 AM 71.6 °F 64.4 °F 78% 30.13 in 10.0 mi SSE 11.5 mph - N/A   Overcast
11:53 AM 71.1 °F 64.0 °F 78% 30.08 in 10.0 mi SSE 11.5 mph - N/A   Overcast
12:53 PM 70.0 °F 63.0 °F 78% 30.07 in 10.0 mi South 9.2 mph - N/A   Overcast
1:53 PM 71.1 °F 63.0 °F 75% 30.06 in 10.0 mi SSE 9.2 mph - N/A   Overcast
2:53 PM 73.9 °F 64.0 °F 71% 30.04 in 10.0 mi South 9.2 mph - N/A   Overcast
3:53 PM 73.9 °F 64.0 °F 71% 30.02 in 10.0 mi SSE 6.9 mph - N/A   Overcast
4:34 PM 75.2 °F 64.4 °F 69% 30.07 in 10.0 mi SSE 11.5 mph - N/A   Overcast
4:53 PM 75.0 °F 64.9 °F 71% 30.01 in 10.0 mi South 9.2 mph - N/A   Overcast
5:53 PM 73.9 °F 64.9 °F 73% 30.00 in 10.0 mi SE 10.4 mph - N/A   Overcast
6:53 PM 73.9 °F 64.9 °F 73% 29.99 in 10.0 mi SE 10.4 mph - N/A   Overcast
7:19 PM 73.4 °F 64.4 °F 73% 30.06 in 10.0 mi SSE 12.7 mph - N/A   Overcast
7:27 PM 73.4 °F 64.4 °F 73% 30.06 in 10.0 mi SSE 9.2 mph 21.9 mph N/A   Overcast
7:35 PM 73.4 °F 64.4 °F 73% 30.06 in 10.0 mi SSE 10.4 mph - N/A   Overcast
7:43 PM 73.4 °F 64.4 °F 73% 30.07 in 10.0 mi SSE 11.5 mph - N/A   Overcast
7:53 PM 72.0 °F 64.0 °F 76% 30.00 in 10.0 mi SSE 11.5 mph - N/A   Overcast
8:53 PM 71.1 °F 63.0 °F 75% 30.01 in 10.0 mi SSE 6.9 mph - N/A   Overcast
9:53 PM 70.0 °F 63.0 °F 78% 30.02 in 10.0 mi SE 5.8 mph - N/A   Overcast
10:50 PM 69.8 °F 62.6 °F 78% 30.09 in 10.0 mi SE 9.2 mph - N/A   Mostly Cloudy
10:53 PM 69.1 °F 63.0 °F 81% 30.03 in 10.0 mi SE 9.2 mph - N/A   Mostly Cloudy
11:30 PM 69.8 °F 62.6 °F 78% 30.10 in 10.0 mi SSE 9.2 mph - N/A   Scattered Clouds
11:53 PM 68.0 °F 62.1 °F 81% 30.04 in 10.0 mi SSE 8.1 mph 17.3 mph N/A   Clear